User: anonymous
Location: Lawrence
(38.9720°N, 95.2350°W)
Time: 18:49:40
(UTC-05:00)
Language:

ALOS - Orbit

View from above orbital plane
View from above orbital plane
View from above satellite
View from above satellite

Ground track
Ground track

The orbit data is extracted from the following two-line orbital elements,

1 28931U 06002A   14244.95466670  .00000442  00000-0  98581-4 0   298
2 28931 097.9762 300.3166 0000447 113.4681 014.9783 14.61258447458532
Epoch (UTC): 01 September 2014 22:54:43
Eccentricity: 0.0000447
inclination: 97.9762°
perigee height: 689 km
apogee height: 689 km
right ascension of ascending node: 300.3166°
argument of perigee: 113.4681°
revolutions per day: 14.61258447
mean anomaly at epoch: 14.9783°
orbit number at epoch: 45853

The dashed part of the orbit path shows where the satellite is in the earth's shadow,  

DLR